EW9688 Weather Reports


Display with metric or nautical units.
time (UTC)temp
F
wind
direction
speed
MPH
gust
MPH
rain 1hr
in
rain 24hr
in
rain mn
in
humidity
%
barometer
mb
20260903124829 61 286 0.0 1.0 0.00 0.01 0.00 49 1020.4
20260903123842 61 312 2.0 2.0 0.00 0.01 0.00 48 1020.3
20260903122821 60 293 1.0 2.0 0.00 0.01 0.00 50 1020.2
20260903121822 60 305 2.0 3.0 0.00 0.01 0.00 50 1020.1
20260903120821 61 271 1.0 1.0 0.00 0.01 0.00 50 1020.1
20260903115830 60 306 1.0 2.0 0.00 0.01 0.00 51 1020.1
20260903114830 60 301 2.0 3.0 0.00 0.01 0.00 51 1020.0
20260903113822 60 243 0.0 0.0 0.00 0.01 0.00 51 1020.0
20260903112823 60 289 3.0 3.0 0.00 0.01 0.00 52 1020.0
20260903111830 61 295 1.0 2.0 0.00 0.01 0.00 50 1019.9
20260903110831 61 287 1.0 2.0 0.00 0.01 0.00 51 1019.9
20260903105831 61 290 2.0 2.0 0.00 0.01 0.00 51 1019.9
20260903104831 63 303 1.0 2.0 0.00 0.01 0.00 48 1019.9
20260903103831 63 271 1.0 1.0 0.00 0.01 0.00 47 1019.9
20260903102832 63 237 1.0 1.0 0.00 0.01 0.00 46 1020.0
20260903101823 63 104 0.0 1.0 0.00 0.01 0.00 48 1019.9
20260903100824 63 0.0 0.0 0.00 0.01 0.00 48 1019.9
20260903095824 63 243 1.0 1.0 0.00 0.01 0.00 47 1020.0
20260903094824 62 283 1.0 1.0 0.00 0.01 0.00 48 1020.1
20260903093824 63 290 1.0 1.0 0.00 0.01 0.00 47 1020.1
20260903092844 64 0.0 0.0 0.00 0.01 0.00 47 1020.1
20260903091844 64 282 1.0 2.0 0.00 0.01 0.00 46 1020.1
20260903090825 64 273 1.0 1.0 0.00 0.01 0.00 47 1020.2
20260903085834 64 269 1.0 2.0 0.00 0.01 0.00 44 1020.1
20260903084834 63 222 1.0 1.0 0.00 0.01 0.00 47 1020.1
20260903083834 62 259 1.0 1.0 0.00 0.01 0.00 51 1020.1
20260903082834 62 290 1.0 2.0 0.00 0.01 0.00 52 1020.0
20260903081826 62 203 2.0 2.0 0.00 0.01 0.00 55 1020.0
20260903080846 62 242 1.0 2.0 0.00 0.01 0.00 56 1020.1
20260903075826 62 257 1.0 1.0 0.00 0.01 0.00 60 1020.1
20260903074847 61 223 1.0 1.0 0.00 0.01 0.00 62 1020.2
20260903073826 62 271 1.0 1.0 0.00 0.01 0.00 64 1020.1
20260903072827 63 200 1.0 1.0 0.00 0.01 0.00 60 1020.2
20260903071834 63 260 1.0 1.0 0.00 0.01 0.00 60 1020.3
20260903070835 64 205 1.0 2.0 0.00 0.01 0.00 58 1020.3
20260903065907 65 219 0.0 0.0 0.00 0.01 0.00 58 1020.4
20260903064827 65 330 0.0 1.0 0.00 0.01 0.00 58 1020.5
20260903063827 65 327 1.0 2.0 0.00 0.01 0.00 57 1020.6
20260903062828 65 274 1.0 1.0 0.00 0.01 0.00 60 1020.6
20260903061855 66 0.0 0.0 0.00 0.01 0.00 60 1020.7
20260903060828 66 302 0.0 1.0 0.00 0.01 0.00 58 1020.6
20260903055836 66 116 0.0 1.0 0.00 0.01 0.01 59 1020.5
20260903054902 66 152 2.0 3.0 0.00 0.01 0.01 58 1020.7
20260903053837 66 179 1.0 1.0 0.00 0.01 0.01 58 1020.5
20260903052857 66 177 2.0 2.0 0.00 0.01 0.01 54 1020.4
20260903051829 66 0.0 0.0 0.00 0.01 0.01 53 1020.6
20260903050829 66 174 1.0 1.0 0.00 0.01 0.01 53 1020.7
20260903045829 67 354 1.0 2.0 0.00 0.01 0.01 56 1020.5
20260903044829 67 269 2.0 2.0 0.00 0.01 0.01 54 1020.7
20260903043829 67 329 2.0 3.0 0.00 0.01 0.01 54 1020.9
20260903042830 66 205 3.0 3.0 0.00 0.01 0.01 57 1021.0
20260903041830 65 344 1.0 2.0 0.00 0.01 0.01 60 1021.0
20260903040830 65 283 1.0 1.0 0.00 0.01 0.01 59 1021.2
20260903035830 65 254 0.0 0.0 0.00 0.01 0.01 61 1021.1
20260903034851 65 204 1.0 1.0 0.00 0.01 0.01 62 1021.0
20260903033831 66 260 0.0 0.0 0.00 0.01 0.01 61 1021.1
20260903032831 66 262 1.0 1.0 0.00 0.02 0.01 60 1021.0
20260903031831 67 113 2.0 3.0 0.00 0.02 0.01 60 1021.1
20260903030830 67 328 1.0 2.0 0.00 0.02 0.01 60 1021.0
20260903025840 68 239 0.0 0.0 0.00 0.02 0.01 59 1020.7
20260903024905 70 14 4.0 5.0 0.00 0.02 0.01 56 1020.8
20260903023824 71 48 5.0 7.0 0.00 0.02 0.01 52 1020.9
20260903022825 72 26 3.0 6.0 0.01 0.02 0.01 47 1020.5
20260903021845 72 19 4.0 5.0 0.01 0.02 0.01 46 1020.1
20260903020825 73 33 3.0 5.0 0.01 0.02 0.01 46 1020.0
20260903015817 74 13 2.0 3.0 0.01 0.02 0.01 44 1019.8
20260903014818 73 17 6.0 8.0 0.01 0.02 0.01 44 1019.6
20260903013817 74 325 3.0 8.0 0.01 0.02 0.01 46 1019.7
20260903012817 75 10 4.0 6.0 0.00 0.02 0.00 39 1019.6
20260903011818 76 306 3.0 3.0 0.00 0.02 0.00 37 1019.6
20260903010819 76 297 1.0 2.0 0.00 0.02 0.00 37 1019.5
20260903005826 76 352 3.0 4.0 0.00 0.02 0.00 36 1019.4
20260903004839 76 11 3.0 4.0 0.00 0.02 0.00 37 1019.5
20260903003907 77 9 3.0 4.0 0.00 0.04 0.00 36 1019.4
20260903002833 77 7 3.0 4.0 0.00 0.04 0.00 35 1019.2
20260903001817 78 278 3.0 6.0 0.00 0.04 0.00 36 1019.4
20260903000817 78 264 3.0 4.0 0.00 0.04 0.00 36 1019.4
20260902235817 80 285 1.0 2.0 0.00 0.04 0.00 34 1019.3
20260902234817 81 297 3.0 6.0 0.00 0.04 0.00 33 1019.1
20260902233820 81 321 5.0 8.0 0.00 0.04 0.00 32 1019.3
20260902232818 82 300 3.0 4.0 0.00 0.04 0.00 31 1019.4
20260902231818 81 314 4.0 6.0 0.00 0.04 0.00 32 1019.5
20260902230818 80 290 5.0 10.0 0.00 0.04 0.00 33 1019.6
20260902225917 0 284 6.0 11.0 0.00 0.04 0.00
20260902224817 0 268 4.0 10.0 0.00 0.04 0.00
20260902223819 81 264 2.0 4.0 0.00 0.04 0.00 30 1019.6
20260902222818 81 201 2.0 3.0 0.00 0.04 0.00 28 1019.5
20260902221819 82 33 3.0 4.0 0.00 0.04 0.00 29 1019.1
20260902220820 82 46 4.0 4.0 0.00 0.04 0.00 27 1019.0
20260902215820 83 80 3.0 5.0 0.00 0.04 0.00 27 1019.2
20260902214819 83 169 6.0 8.0 0.00 0.04 0.00 28 1019.3
20260902213839 83 114 2.0 3.0 0.00 0.04 0.00 28 1019.4
20260902212821 83 201 3.0 3.0 0.00 0.04 0.00 28 1019.5
20260902211818 0 177 5.0 8.0 0.00 0.04 0.00
20260902210819 83 79 5.0 6.0 0.00 0.04 0.00 27 1019.6
20260902205840 83 26 7.0 9.0 0.00 0.04 0.00 28 1019.8
20260902204820 0 34 5.0 8.0 0.00 0.04 0.00
20260902203819 0 30 5.0 8.0 0.00 0.04 0.00
20260902202820 0 41 6.0 11.0 0.00 0.04 0.00
20260902201841 83 33 6.0 7.0 0.00 0.04 0.00 28 1020.3
20260902200820 82 171 4.0 7.0 0.00 0.04 0.00 29 1020.5
20260902195836 0 110 4.0 8.0 0.00 0.04 0.00
20260902194816 0 74 4.0 7.0 0.00 0.04 0.00
20260902193842 82 253 2.0 4.0 0.00 0.04 0.00 29 1020.8
20260902192841 81 89 7.0 9.0 0.00 0.04 0.00 30 1020.9
20260902191822 0 16 5.0 6.0 0.00 0.04 0.00
20260902190837 0 174 7.0 9.0 0.00 0.04 0.00
20260902185818 0 143 4.0 5.0 0.00 0.04 0.00
20260902184838 0 187 5.0 6.0 0.00 0.04 0.00
20260902183818 81 92 4.0 5.0 0.00 0.04 0.00 30 1021.5
20260902182818 0 126 2.0 4.0 0.00 0.04 0.00
20260902181819 0 202 4.0 9.0 0.00 0.04 0.00
20260902180818 0 168 4.0 6.0 0.00 0.04 0.00
20260902175839 0 112 4.0 6.0 0.00 0.04 0.00
20260902174818 0 109 5.0 9.0 0.00 0.04 0.00
20260902173839 0 184 4.0 7.0 0.00 0.04 0.00
20260902172819 0 122 3.0 7.0 0.00 0.04 0.00
20260902171820 0 103 4.0 8.0 0.00 0.04 0.00
20260902170819 0 177 4.0 6.0 0.00 0.04 0.00
20260902165820 0 148 4.0 5.0 0.00 0.04 0.00
20260902164819 0 93 3.0 5.0 0.00 0.04 0.00
20260902163820 0 127 4.0 7.0 0.00 0.04 0.00
20260902162820 0 152 4.0 6.0 0.00 0.04 0.00
20260902161840 0 162 4.0 5.0 0.00 0.04 0.00
20260902160817 0 132 4.0 6.0 0.00 0.04 0.00
20260902155841 0 179 4.0 10.0 0.00 0.04 0.00
20260902154820 0 191 5.0 7.0 0.00 0.04 0.00
20260902153821 0 168 4.0 5.0 0.00 0.04 0.00
20260902152821 0 153 3.0 6.0 0.00 0.04 0.00
20260902151821 0 161 2.0 5.0 0.00 0.04 0.00
20260902150841 0 181 2.0 3.0 0.00 0.04 0.00
20260902145821 0 147 4.0 7.0 0.00 0.04 0.00
20260902144826 72 182 2.0 3.0 0.00 0.04 0.00 42 1022.5
20260902143828 72 119 2.0 2.0 0.00 0.04 0.00 39 1022.5
20260902142826 72 167 3.0 3.0 0.00 0.04 0.00 40 1022.5
20260902141827 71 162 3.0 3.0 0.00 0.04 0.00 41 1022.6
20260902140826 69 190 1.0 1.0 0.00 0.04 0.00 44 1022.6
20260902135907 68 183 2.0 2.0 0.00 0.04 0.00 43 1022.6
20260902134826 68 188 2.0 2.0 0.00 0.04 0.00 44 1022.7
20260902133827 68 264 1.0 1.0 0.00 0.04 0.00 39 1022.6
20260902132847 67 311 1.0 2.0 0.00 0.04 0.00 40 1022.5
20260902131827 66 282 2.0 4.0 0.00 0.04 0.00 40 1022.5
20260902130837 64 294 2.0 2.0 0.00 0.04 0.00 41 1022.4
20260902125827 63 290 2.0 3.0 0.00 0.04 0.00 45 1022.4